Location: Casco Volunteer Fire Department
(44.5576°N, 87.6146°W)
Time: 05:13:17
(UTC+00:00)

Cosmos 1953 - Pass Details

Date: 22 January 2026
Orbit: 474 x 489 km, 82.5° (Epoch: 10 February)

Event Time Altitude Azimuth Distance (km) Brightness Sun altitude
Rises 12:42:06 0° 222° (SW) 2,543 5.5 -6.8°
Reaches altitude 10° 12:44:38 10° 241° (WSW) 1,672 4.4 -6.4°
Maximum altitude 12:47:19 19° 288° (WNW) 1,221 3.5 -6.0°
Drops below altitude 10° 12:50:00 10° 335° (NNW) 1,688 4.4 -5.5°
Sets 12:52:36 0° 354° (N) 2,578 5.5 -5.1°
